Погода в Саскылахе

Хотите узнать прогноз погоды в Саскылахе? Тогда Вам сюда: Погода в Саскылахе

Поиск расширенной информации на нашем сайте:

Полезная информация:

Новости сайта



02.01.2020
Опубликован Долгосрочный прогноз погоды по городам России и ближнего зарубежья на январь 2020 года.
Карты: Прогноз на январь и февраль 2020 года, Сравнение прогнозируемой аномалии приземной температуры воздуха на январь 2020 года по разным моделям.




Погода в Саскылахе - сегодня

Время (UTC), дата Ветер
(°,м/с) 
Видим.   Явления Облачность Т
(°С)
Тd
(°С)
f(%) Тe
(°С)
Pmin
(гПа)
dP
(гПа)
Po
(мм)
O2
(г/м3)
Тmin Tmax R s Состояние
почвы
09 23.11.20 100 (В) 20000 м    ясно 
-17.3 -19.3 84 -20  1004  751  325           
12 23.11.20 260 (З) 20000 м    6/0 средняя 
[Ac trans]
-12.4 -15 81 -17  1006.6  2.6  753  319    -12.4       
15 23.11.20 230 (ЮЗ) 20000 м    ясно 
-14.7 -17.1 82 -18  1009.1  2.3  755  323           
18 23.11.20 190 (Ю) 20000 м    ясно 
-19.2 -21.4 83 -23  1012.1  757  330           
21 23.11.20 230 (ЮЗ) н/о    н/о 
-18.7 -20.5 86 -19  1014.2  2.3  759  330           
00 24.11.20 тихо ()   20000 м    ясно 
-19.3 -21.2 85 -19  1017  2.3  761  332  -20.2      39  неравномерный
мокрый или
старый снег
100% 
15 24.11.20 тихо ()   20000 м    ясно 
-24.7 -27.1 80 -25  1025.4  1.1  767  342           
18 24.11.20 тихо ()   20000 м    ясно 
-22.9 -25.3 81 -23  1026  0.6  768  339           
21 24.11.20 100 (В) 20000 м    ясно 
-26 -28.9 77 -27  1026.5  0.5  768  344           
00 25.11.20 130 (ЮВ) 20000 м    ясно 
-27.2 -30.3 75 -28  1026.9  0.4  768  346  -28      39  неравномерный
мокрый или
старый снег
100% 
03 25.11.20 тихо ()   1000 м  дымка  10/10 300 м 
[Sc]
-25.9 -28.7 77 -26  1027.6  0.7  769  344           
06 25.11.20 тихо ()   20000 м    ясно 
-25.7 -28.5 77 -26  1027.6  769  344           
09 25.11.20 150 (ЮВ) 20000 м    ясно 
-22.8 -25.3 80 -23  1027.9  0.3  769  340           
12 25.11.20 080 (В) 50000 м    10/10 500 м 
[Sc]
-18.6 -20.7 83 -19  1027.4  -0.4  769  334    -18.6       
15 25.11.20 200 (Ю) 20000 м    10/10 420 м 
[Sc]
-12.7 -14.1 89 -16  1026.8  -0.6  768  326           
18 25.11.20 240 (ЮЗ) 20000 м    10/10 360 м 
[Sc]
-12 -14.6 81 -15  1026.1  -0.6  760  322           
21 25.11.20 210 (ЮЗ) 20000 м    10/10 360 м 
[Sc]
-11.4 -14.1 80 -15  1025.9  -0.2  768  324           
00 26.11.20 240 (ЮЗ) 20000 м    10/10 450 м 
[Sc]
-10.5 -13.3 80 -14  1025.6  -0.3  767  323  -28.7      39  неравномерный
мокрый или
старый снег
100% 
03 26.11.20 250 (З) 20000 м    10/10 840 м 
[Sc]
-10.3 -13 81 -14  1025.4  -0.2  767  323           
06 26.11.20 260 (З) 50000 м  в посл. час снег  10/10 1110 м 
[Sc]
-9.8 -12.4 81 -14  1026.1  0.7  768  322           
09 26.11.20 220 (ЮЗ) 20000 м    10/0 средняя 
[Ac und]
-9.6 -12.2 81 -13  1026.6  0.5  768  322           
12 26.11.20 тихо ()   50000 м    10/0 средняя 
[Ac und]
-11.5 -13.9 82 -12  1027.5  0.9  769  325    -9.6  0.0     
15 26.11.20 260 (З) 20000 м    10/0 средняя 
[Ac und]
-12.1 -14.6 82 -16  1027.8  0.3  769  326           
18 26.11.20 290 (З) 20000 м    10/0 средняя 
[Ac und]
-11.4 -14.1 80 -16  1028.7  0.9  770  325           
21 26.11.20 240 (ЮЗ) 20000 м    10/0 средняя 
[Ac und]
-14.1 -16.6 81 -18  1029.1  0.4  770  329           
Время (UTC), дата Ветер
(°,м/с) 
Видим.   Явления Облачность Т
(°С)
Тd
(°С)
f(%) Тe
(°С)
Pmin
(гПа)
dP
(гПа)
Po
(мм)
O2
(г/м3)
Тmin Tmax R s Состояние
почвы

Для получения пояснительной информации подведите курсор к названию столбца.

ПОГОДА в Саскылахе - архив

Всё, что Вы хотите узнать о погоде в Саскылахе - удобно и подробно!

Выберите нужную дату (начиная с 1 января 2019* года) и нажмите кнопку "Найти".
Будут отображены архивные сводки погоды по пункту Саскылах, начиная с указанной даты.


Отображать данные в формате CSV (для использования в таблицах Excel)


Внимание! Наш архив погоды предназначен исключительно для личного некоммерческого использования в познавательных целях. Если Вам необходимы официальные справки о состоянии погоды (для производственных, юридических, коммерческих и т.п. целей), обращайтесь в органы Росгидромета.

*Примечание: данная дата относится к архиву по метеостанциям СССР (Россия, СНГ, Балтия).
Архив по метеостанциям Зарубежной Европы и Азии (кроме Китая) хранится 10 дней, по другим регионам земного шара (Китай, Африка, Америка, Австралия, Океания) - 1 день.

Саскылах - район местоположения метеостанции


Название, широта, долгота, высота метеостанции:
Саскылах 72°ш. 114.1°д. 18 м над ур. моря [Российская Федерация]

Дополнительная информация

В oтличие oт бoльшинства пoгoдных сайтoв мы публикуем пoдрoбную метеoинфoрмацию в детальнoм прoфессиoнальнoм фoрмате.

Характеристики температуры и влажнoсти вoздуха измеряются на высoте 2 м в тени вдали oт зданий и деревьев.
Скoрoсть ветра измеряется на высoте 10 м (на урoвне рoста челoвека скoрoсть ветра ниже в 1.5-2 раза). Если метеoстанция нахoдится в гoрoде или в лесу, тo скoрoсть ветра занижена на 2-4 м/с пo сравнению с oткрытым местoм. Скoрoсть ветра над акватoриями крупных рек и oзёр, а также на вершинах хoлмoв на 2-5 м/с выше, чем в oбычных услoвиях.
Атмoсфернoе давление в разных тoчках местнoсти мoжет значительнo oтличаться oт давления на метеoстанции, в зависимoсти oт услoвий рельефа (при пoдъёме на 10 м давление пoнижается примернo на 1 мм рт.ст.).